KJ4EWA Weather Reports


Display with metric or nautical units.
time (UTC)temp
F
wind
direction
speed
MPH
gust
MPH
rain 1hr
in
rain 24hr
in
rain mn
in
humidity
%
barometer
mb
20210923175816 77 311 3.0 8.0 0.00 0.00 0.00 51 1017.9
20210923175316 78 14 1.0 5.0 0.00 0.00 0.00 50 1018.3
20210923174814 78 260 0.0 9.0 0.00 0.00 0.00 55 1018.3
20210923174312 78 270 2.0 2.0 0.00 0.00 0.00 51 1018.2
20210923173810 78 239 3.0 6.0 0.00 0.00 0.00 49 1018.3
20210923173309 77 341 0.0 2.0 0.00 0.00 0.00 53 1018.3
20210923172807 76 83 0.0 2.0 0.00 0.00 0.00 51 1018.2
20210923172305 76 151 1.0 6.0 0.00 0.00 0.00 52 1018.3
20210923171802 76 319 6.0 7.0 0.00 0.00 0.00 47 1018.3
20210923171301 75 255 3.0 9.0 0.00 0.00 0.00 47 1018.6
20210923170801 77 12 2.0 5.0 0.00 0.00 0.00 52 1018.4
20210923170255 78 270 2.0 2.0 0.00 0.00 0.00 54 1018.6
20210923165741 76 261 0.0 5.0 0.00 0.00 0.00 48 1018.6
20210923165238 77 274 3.0 8.0 0.00 0.00 0.00 48 1018.6
20210923164738 78 293 0.0 5.0 0.00 0.00 0.00 56 1018.4
20210923164234 76 0 0.0 5.0 0.00 0.00 0.00 57 1018.7
20210923163732 76 111 1.0 3.0 0.00 0.00 0.00 52 1018.8
20210923163231 75 289 0.0 4.0 0.00 0.00 0.00 56 1018.7
20210923162730 76 35 1.0 4.0 0.00 0.00 0.00 47 1019.0
20210923162230 76 90 2.0 4.0 0.00 0.00 0.00 54 1019.0
20210923161728 75 354 0.0 11.0 0.00 0.00 0.00 55 1018.9
20210923161226 74 299 2.0 6.0 0.00 0.00 0.00 52 1019.2
20210923160725 75 249 6.0 7.0 0.00 0.00 0.00 50 1018.9
20210923160225 75 262 1.0 7.0 0.00 0.00 0.00 58 1019.1
20210923155723 74 293 2.0 5.0 0.00 0.00 0.00 57 1019.1
20210923155222 74 352 0.0 9.0 0.00 0.00 0.00 55 1019.0
20210923154721 74 233 0.0 6.0 0.00 0.00 0.00 53 1019.1
20210923154218 74 254 2.0 5.0 0.00 0.00 0.00 54 1019.0
20210923153717 73 238 3.0 7.0 0.00 0.00 0.00 57 1019.1
20210923153210 73 109 0.0 4.0 0.00 0.00 0.00 60 1019.2
20210923152710 73 246 0.0 3.0 0.00 0.00 0.00 56 1019.2
20210923152207 72 276 3.0 8.0 0.00 0.00 0.00 55 1019.2
20210923151706 73 265 0.0 4.0 0.00 0.00 0.00 58 1019.0
20210923151205 73 293 0.0 3.0 0.00 0.00 0.00 63 1019.1
20210923150703 71 229 3.0 8.0 0.00 0.00 0.00 58 1019.2
20210923150201 72 291 5.0 5.0 0.00 0.00 0.00 62 1019.2
20210923145659 72 270 1.0 2.0 0.00 0.00 0.00 69 1019.2
20210923145159 71 213 0.0 5.0 0.00 0.00 0.00 62 1019.3
20210923144657 71 188 0.0 3.0 0.00 0.00 0.00 63 1019.1
20210923144157 70 99 0.0 4.0 0.00 0.00 0.00 64 1019.0
20210923143652 69 235 3.0 3.0 0.00 0.00 0.00 66 1019.1
20210923143151 69 212 0.0 4.0 0.00 0.00 0.00 66 1019.3
20210923142651 68 303 2.0 4.0 0.00 0.00 0.00 68 1019.1
20210923142148 67 24 4.0 4.0 0.00 0.00 0.00 69 1019.0
20210923141647 65 241 0.0 4.0 0.00 0.00 0.00 71 1018.9
20210923141147 64 270 0.0 5.0 0.00 0.00 0.00 78 1019.1
20210923140646 63 346 0.0 4.0 0.00 0.00 0.00 79 1019.1
20210923140146 63 71 2.0 7.0 0.00 0.00 0.00 79 1019.2
20210923135645 62 233 0.0 4.0 0.00 0.00 0.00 83 1018.9
20210923135145 61 237 2.0 5.0 0.00 0.00 0.00 86 1019.3
20210923134644 60 277 0.0 7.0 0.00 0.00 0.00 88 1019.0
20210923134142 59 23 0.0 2.0 0.00 0.00 0.00 92 1019.0
20210923133640 58 339 2.0 2.0 0.00 0.00 0.00 94 1018.9
20210923133138 58 344 2.0 3.0 0.00 0.00 0.00 93 1018.9
20210923132637 58 286 0.0 3.0 0.00 0.00 0.00 96 1019.0
20210923132135 57 18 0.0 1.0 0.00 0.00 0.00 97 1018.9
20210923131635 57 331 0.0 2.0 0.00 0.00 0.00 97 1018.8
20210923131134 57 0 0.0 2.0 0.00 0.00 0.00 98 1018.9
20210923130633 56 270 0.0 1.0 0.00 0.00 0.00 98 1018.9
20210923130132 56 15 0.0 2.0 0.00 0.00 0.00 98 1018.7
20210923125630 55 345 0.0 2.0 0.00 0.00 0.00 98 1018.9
20210923125127 55 5 0.0 0.0 0.00 0.00 0.00 98 1018.6
20210923124626 55 26 0.0 0.0 0.00 0.00 0.00 98 1018.6
20210923124125 54 352 0.0 2.0 0.00 0.00 0.00 98 1018.5
20210923123623 54 265 0.0 0.0 0.00 0.00 0.00 98 1018.5
20210923123123 54 265 0.0 2.0 0.00 0.00 0.00 99 1018.8
20210923122621 53 331 0.0 1.0 0.00 0.00 0.00 98 1018.6
20210923122120 53 301 0.0 0.0 0.02 0.00 0.00 98 1018.6
20210923121615 53 291 1.0 2.0 0.02 0.00 0.00 99 1018.6
20210923121113 53 285 0.0 3.0 0.00 0.00 0.00 99 1018.4
20210923120613 53 328 0.0 1.0 0.00 0.00 0.00 99 1018.3
20210923120112 52 346 0.0 0.0 0.00 0.00 0.00 98 1018.1
20210923115609 52 340 0.0 1.0 0.00 0.00 0.00 98 1018.3
20210923115109 52 306 0.0 0.0 0.00 0.00 0.00 98 1018.2
20210923114605 53 325 1.0 1.0 0.00 0.00 0.00 98 1018.2
20210923114103 53 300 0.0 0.0 0.00 0.00 0.00 98 1018.0
20210923113602 53 340 1.0 2.0 0.00 0.00 0.00 99 1018.0
20210923113101 52 286 0.0 1.0 0.00 0.00 0.00 98 1017.8
20210923112600 53 337 0.0 1.0 0.00 0.00 0.00 98 1018.0
20210923112059 52 320 0.0 2.0 0.00 0.00 0.00 98 1018.1
20210923111559 52 352 0.0 0.0 0.00 0.00 0.00 98 1018.0
20210923111055 52 352 0.0 0.0 0.00 0.00 0.00 98 1018.0
20210923110554 52 294 0.0 1.0 0.00 0.00 0.00 98 1017.9
20210923110054 52 286 0.0 0.0 0.00 0.00 0.00 98 1017.9
20210923105550 52 286 0.0 0.0 0.00 0.00 0.00 98 1017.8
20210923105048 52 286 0.0 0.0 0.00 0.00 0.00 98 1017.8
20210923104547 52 286 0.0 0.0 0.00 0.00 0.00 98 1017.9
20210923104046 53 286 0.0 0.0 0.00 0.00 0.00 98 1017.7
20210923103539 53 286 0.0 0.0 0.00 0.00 0.00 98 1017.7
20210923103036 53 286 1.0 1.0 0.00 0.00 0.00 98 1017.4
20210923102536 53 291 0.0 1.0 0.00 0.00 0.00 98 1017.7
20210923102033 53 0 0.0 0.0 0.00 0.00 0.00 98 1017.6
20210923101532 52 0 0.0 0.0 0.00 0.00 0.00 98 1017.5
20210923101030 53 340 0.0 1.0 0.00 0.00 0.00 98 1017.5
20210923100529 52 261 0.0 0.0 0.00 0.00 0.00 98 1017.7
20210923100028 53 261 0.0 0.0 0.00 0.00 0.00 98 1017.4
20210923095527 53 261 0.0 0.0 0.00 0.00 0.00 98 1017.4
20210923095025 53 294 0.0 2.0 0.00 0.00 0.00 98 1017.6
20210923094523 53 334 0.0 0.0 0.00 0.00 0.00 98 1017.4
20210923094022 53 334 0.0 1.0 0.00 0.00 0.00 98 1017.4
20210923093520 53 346 0.0 2.0 0.00 0.00 0.00 98 1017.4
20210923093020 53 306 0.0 2.0 0.00 0.00 0.00 98 1017.5
20210923092519 53 346 0.0 0.0 0.00 0.00 0.00 98 1017.2
20210923092018 53 334 0.0 1.0 0.00 0.00 0.00 98 1017.6
20210923091517 53 345 0.0 0.0 0.00 0.00 0.00 98 1017.3
20210923091013 53 345 0.0 0.0 0.00 0.00 0.00 97 1017.6
20210923090513 53 352 0.0 1.0 0.00 0.00 0.00 98 1017.4
20210923090010 54 294 0.0 0.0 0.00 0.00 0.00 97 1017.4
20210923085509 53 286 0.0 0.0 0.00 0.00 0.00 97 1017.5
20210923085006 53 286 0.0 0.0 0.00 0.00 0.00 97 1017.6
20210923084505 54 286 0.0 0.0 0.00 0.00 0.00 97 1017.6
20210923084001 54 286 0.0 0.0 0.00 0.00 0.00 97 1017.5
20210923083459 54 286 0.0 0.0 0.00 0.00 0.00 97 1017.6
20210923082959 54 270 0.0 0.0 0.00 0.00 0.00 97 1017.3
20210923082457 54 270 0.0 0.0 0.00 0.00 0.00 97 1017.7
20210923081957 55 270 0.0 0.0 0.00 0.00 0.00 97 1017.6
20210923081455 55 346 0.0 0.0 0.00 0.00 0.00 97 1017.6
20210923080954 55 8 0.0 2.0 0.00 0.00 0.00 97 1017.5
20210923080452 55 340 1.0 1.0 0.00 0.00 0.00 97 1017.5
20210923075952 55 270 0.0 0.0 0.00 0.00 0.00 97 1017.7
20210923075450 55 0 0.0 0.0 0.00 0.00 0.00 97 1017.5
20210923074947 55 315 0.0 0.0 0.00 0.00 0.00 97 1017.4
20210923074446 55 315 0.0 0.0 0.00 0.00 0.00 97 1017.5
20210923073944 55 14 0.0 1.0 0.00 0.00 0.00 97 1017.7
20210923073443 55 23 0.0 0.0 0.00 0.00 0.00 97 1017.7
20210923072934 55 0 0.0 1.0 0.00 0.00 0.00 97 1017.5
20210923072432 55 15 0.0 1.0 0.00 0.00 0.00 97 1017.5
20210923071931 55 8 0.0 0.0 0.00 0.00 0.00 97 1017.6
20210923071430 55 8 0.0 0.0 0.00 0.00 0.00 97 1017.7
20210923070929 55 8 0.0 0.0 0.00 0.00 0.00 97 1017.6
20210923070430 55 8 0.0 0.0 0.00 0.00 0.00 97 1017.6
20210923065928 55 352 0.0 0.0 0.00 0.00 0.00 97 1017.8
20210923065426 55 325 0.0 0.0 0.00 0.00 0.00 97 1017.6
20210923064924 55 325 0.0 0.0 0.00 0.00 0.00 97 1017.8
20210923064424 56 325 0.0 0.0 0.00 0.00 0.00 97 1017.6
20210923063922 56 325 0.0 0.0 0.00 0.00 0.00 97 1017.7
20210923063421 56 325 0.0 0.0 0.00 0.00 0.00 96 1017.5
20210923062920 57 345 0.0 1.0 0.00 0.00 0.00 96 1017.7
20210923062419 57 0 0.0 0.0 0.00 0.00 0.00 97 1017.8
20210923061917 57 0 0.0 0.0 0.00 0.00 0.00 96 1017.8
20210923061416 57 0 0.0 0.0 0.00 0.00 0.00 96 1017.8
20210923060912 57 345 0.0 1.0 0.00 0.00 0.00 96 1017.7
20210923060409 57 320 0.0 2.0 0.00 0.00 0.00 96 1017.8
20210923055907 57 339 0.0 0.0 0.00 0.00 0.00 96 1017.6
20210923055406 57 337 0.0 2.0 0.00 0.00 0.00 96 1017.8
20210923054905 57 0 0.0 2.0 0.00 0.00 0.00 96 1018.0
20210923054403 58 355 1.0 2.0 0.00 0.00 0.00 96 1018.0
20210923053902 58 315 0.0 2.0 0.00 0.00 0.00 96 1017.9
20210923053400 58 331 0.0 2.0 0.00 0.00 0.00 96 1017.9
20210923052858 58 325 1.0 2.0 0.00 0.00 0.00 96 1017.9
20210923052357 58 334 1.0 2.0 0.00 0.00 0.00 96 1018.0
20210923051856 57 326 0.0 2.0 0.00 0.00 0.00 96 1018.0
20210923051355 57 352 0.0 0.0 0.00 0.00 0.00 96 1018.0
20210923050854 58 352 0.0 1.0 0.00 0.00 0.00 96 1018.2
20210923050352 58 0 0.0 0.0 0.00 0.00 0.00 96 1018.3
20210923045850 58 0 0.0 0.0 0.00 0.00 0.00 95 1018.2
20210923045348 58 0 0.0 0.0 0.00 0.00 0.00 95 1018.1
20210923044848 58 0 0.0 0.0 0.00 0.00 0.00 95 1018.3
20210923044347 58 0 0.0 0.0 0.00 0.00 0.00 95 1018.2
20210923043845 59 0 0.0 0.0 0.00 0.00 0.00 95 1018.3
20210923043343 59 0 0.0 0.0 0.00 0.00 0.00 94 1018.4
20210923042841 59 0 0.0 0.0 0.00 0.00 0.00 94 1018.4
20210923042340 59 0 0.0 0.0 0.00 0.00 0.00 94 1018.3
20210923041838 59 0 0.0 0.0 0.00 0.00 0.00 94 1017.9
20210923041338 60 0 0.0 0.0 0.00 0.00 0.00 93 1018.1
20210923040836 60 352 0.0 0.0 0.00 0.00 0.00 93 1018.1
20210923040335 60 354 0.0 1.0 0.00 0.00 0.00 92 1018.1
20210923035834 61 300 0.0 0.0 0.00 0.00 0.00 92 1018.1
20210923035333 61 300 0.0 0.0 0.00 0.00 0.00 91 1018.0
20210923034832 61 300 0.0 0.0 0.00 0.00 0.00 90 1018.0
20210923034331 61 0 0.0 1.0 0.00 0.00 0.00 90 1018.0
20210923033830 61 0 0.0 0.0 0.00 0.00 0.00 89 1017.9
20210923033324 62 306 0.0 2.0 0.00 0.00 0.00 88 1017.7
20210923032823 62 340 0.0 3.0 0.00 0.00 0.00 89 1017.8
20210923032321 62 270 0.0 2.0 0.00 0.00 0.00 90 1018.0
20210923031817 62 353 0.0 0.0 0.00 0.00 0.00 89 1017.7
20210923031316 62 327 3.0 3.0 0.00 0.00 0.00 88 1017.9
20210923030814 63 238 3.0 3.0 0.00 0.00 0.00 88 1018.0
20210923030313 63 280 0.0 2.0 0.00 0.00 0.00 87 1018.1
20210923025811 63 340 0.0 1.0 0.00 0.00 0.00 87 1017.7
20210923025310 63 289 1.0 1.0 0.00 0.00 0.00 87 1017.6
20210923024809 64 279 0.0 0.0 0.00 0.00 0.00 85 1017.7
20210923024307 64 250 2.0 2.0 0.00 0.00 0.00 85 1017.8
20210923023805 65 336 0.0 4.0 0.00 0.00 0.00 83 1017.7
20210923023304 64 254 0.0 2.0 0.00 0.00 0.00 84 1017.6
20210923022802 65 280 0.0 2.0 0.00 0.00 0.00 84 1017.6
20210923022300 65 334 0.0 3.0 0.00 0.00 0.00 83 1017.5
20210923021759 65 0 0.0 2.0 0.00 0.00 0.00 82 1017.6
20210923021256 65 301 2.0 2.0 0.00 0.00 0.00 83 1017.7
20210923020754 66 320 0.0 2.0 0.00 0.00 0.00 83 1017.5
20210923020254 66 345 0.0 3.0 0.00 0.00 0.00 82 1017.4
20210923015750 66 330 0.0 3.0 0.00 0.00 0.00 81 1017.4
20210923015251 66 331 2.0 4.0 0.00 0.00 0.00 81 1017.2
20210923014749 66 101 2.0 2.0 0.00 0.00 0.00 81 1017.4
20210923014244 66 294 0.0 4.0 0.00 0.00 0.00 81 1017.3
20210923013743 67 285 0.0 5.0 0.00 0.00 0.00 80 1017.3
20210923013243 66 251 0.0 4.0 0.00 0.00 0.00 82 1017.1
20210923012740 66 325 0.0 2.0 0.00 0.00 0.00 81 1017.1
20210923012239 67 255 1.0 4.0 0.00 0.00 0.00 81 1016.9
20210923011738 66 286 0.0 3.0 0.00 0.00 0.00 82 1016.8
20210923011234 66 308 0.0 4.0 0.00 0.00 0.00 81 1016.9
20210923010732 66 340 3.0 5.0 0.00 0.00 0.00 81 1016.7
20210923010230 67 270 4.0 4.0 0.00 0.00 0.00 79 1016.8
20210923005729 67 294 1.0 5.0 0.00 0.00 0.00 81 1016.5
20210923005226 67 275 2.0 4.0 0.00 0.00 0.00 82 1016.5
20210923004725 66 286 1.0 2.0 0.00 0.00 0.00 82 1016.4
20210923004222 66 315 0.0 3.0 0.00 0.00 0.00 82 1016.3
20210923003719 67 341 0.0 3.0 0.00 0.00 0.00 82 1016.3
20210923003218 67 220 2.0 3.0 0.00 0.00 0.00 80 1016.3
20210923002718 68 0 0.0 5.0 0.00 0.00 0.00 79 1016.2
20210923002216 68 330 0.0 2.0 0.00 0.00 0.00 81 1016.0
20210923001715 68 90 0.0 4.0 0.00 0.00 0.00 81 1015.9
20210923001207 68 292 2.0 4.0 0.00 0.00 0.00 79 1016.1
20210923000707 69 19 0.0 6.0 0.00 0.00 0.00 79 1015.6
20210923000206 69 7 1.0 4.0 0.00 0.00 0.00 80 1015.8
20210922235705 69 0 0.0 3.0 0.00 0.00 0.00 81 1015.5
20210922235205 69 323 0.0 3.0 0.00 0.00 0.00 80 1015.7
20210922234703 69 273 3.0 6.0 0.00 0.00 0.00 79 1015.5
20210922234202 69 254 1.0 2.0 0.00 0.00 0.00 82 1015.4
20210922233701 69 337 0.0 1.0 0.00 0.00 0.00 82 1015.4
20210922233200 70 304 3.0 5.0 0.00 0.00 0.00 79 1015.4
20210922232700 71 302 5.0 5.0 0.00 0.00 0.00 79 1015.5
20210922232158 71 298 4.0 4.0 0.00 0.00 0.00 80 1015.4
20210922231656 71 337 0.0 2.0 0.00 0.00 0.00 80 1015.5
20210922231154 71 0 0.0 3.0 0.00 0.00 0.00 78 1015.5
20210922230654 72 309 0.0 3.0 0.00 0.00 0.00 77 1015.2
20210922230151 72 303 2.0 3.0 0.00 0.00 0.00 75 1015.3
20210922225650 74 345 0.0 4.0 0.00 0.00 0.00 74 1015.3
20210922225149 75 255 4.0 4.0 0.00 0.00 0.00 70 1015.2
20210922224646 76 312 2.0 4.0 0.00 0.00 0.00 70 1015.3
20210922224146 76 326 0.0 3.0 0.00 0.00 0.00 70 1015.7
20210922223644 76 297 0.0 3.0 0.00 0.00 0.00 68 1015.4
20210922223140 76 235 6.0 6.0 0.00 0.00 0.00 67 1015.4
20210922222639 76 308 4.0 7.0 0.00 0.00 0.00 66 1015.5
20210922222139 76 343 3.0 6.0 0.00 0.00 0.00 66 1015.5
20210922221637 76 309 3.0 5.0 0.00 0.00 0.00 65 1015.5
20210922221136 76 5 2.0 6.0 0.00 0.00 0.00 68 1015.4
20210922220635 76 318 3.0 4.0 0.00 0.00 0.00 72 1015.3
20210922220135 75 0 1.0 10.0 0.00 0.00 0.00 74 1015.0
20210922215629 76 277 7.0 8.0 0.00 0.00 0.00 71 1015.0
20210922215127 76 0 0.0 11.0 0.00 0.00 0.00 76 1015.0
20210922214624 76 291 6.0 9.0 0.00 0.00 0.00 72 1014.9
20210922214122 77 239 5.0 12.0 0.00 0.00 0.00 70 1015.1
20210922213622 78 334 5.0 14.0 0.00 0.00 0.00 69 1014.9
20210922213120 80 251 2.0 3.0 0.00 0.00 0.00 68 1015.0
20210922212620 80 328 4.0 4.0 0.00 0.00 0.00 67 1014.9
20210922212119 78 330 2.0 5.0 0.00 0.00 0.00 70 1014.8
20210922211619 78 270 0.0 4.0 0.00 0.00 0.00 72 1014.8
20210922211117 77 252 4.0 6.0 0.00 0.00 0.00 73 1014.7
20210922210616 77 297 2.0 6.0 0.00 0.00 0.00 72 1014.9
20210922210115 78 296 7.0 11.0 0.00 0.00 0.00 71 1014.7
20210922205614 81 329 6.0 11.0 0.00 0.00 0.00 67 1014.8
20210922205112 79 264 2.0 9.0 0.00 0.00 0.00 72 1015.0
20210922204611 79 281 2.0 7.0 0.00 0.00 0.00 69 1014.9
20210922204109 80 320 4.0 10.0 0.00 0.00 0.00 67 1014.7
20210922203608 81 319 2.0 10.0 0.00 0.00 0.00 68 1014.7
20210922203106 82 334 5.0 16.0 0.00 0.00 0.00 64 1014.8
20210922202604 82 255 1.0 15.0 0.00 0.00 0.00 69 1014.7
20210922202059 81 297 5.0 8.0 0.00 0.00 0.00 64 1014.8
20210922201557 83 315 4.0 4.0 0.00 0.00 0.00 67 1015.0
20210922201055 82 339 0.0 5.0 0.00 0.00 0.00 66 1015.1
20210922200555 83 4 0.0 13.0 0.00 0.00 0.00 67 1015.3
20210922200055 83 335 5.0 10.0 0.00 0.00 0.00 62 1014.9
20210922195553 84 330 0.0 8.0 0.00 0.00 0.00 69 1015.0
20210922195047 83 303 3.0 6.0 0.00 0.00 0.00 65 1015.0
20210922194547 82 295 8.0 8.0 0.00 0.00 0.00 67 1015.1
20210922194045 80 123 2.0 6.0 0.00 0.00 0.00 70 1015.0
20210922193544 81 311 0.0 5.0 0.00 0.00 0.00 71 1014.9
20210922193043 82 285 3.0 5.0 0.00 0.00 0.00 68 1015.3
20210922192543 81 352 2.0 7.0 0.00 0.00 0.00 74 1015.2
20210922192039 80 285 3.0 7.0 0.00 0.00 0.00 73 1015.2
20210922191538 82 324 7.0 7.0 0.00 0.00 0.00 69 1015.2
20210922191037 81 309 4.0 7.0 0.00 0.00 0.00 69 1015.3
20210922190530 83 297 3.0 5.0 0.00 0.00 0.00 69 1015.4
20210922190028 82 243 3.0 9.0 0.00 0.00 0.00 70 1015.6
20210922185527 81 260 4.0 14.0 0.00 0.00 0.00 70 1015.5
20210922185026 81 316 9.0 10.0 0.00 0.00 0.00 71 1015.8
20210922184526 82 337 1.0 4.0 0.00 0.00 0.00 77 1015.8
20210922184024 81 0 3.0 11.0 0.00 0.00 0.00 72 1015.8
20210922183523 82 306 4.0 12.0 0.00 0.00 0.00 71 1015.8
20210922183021 81 300 5.0 9.0 0.00 0.00 0.00 73 1015.9
20210922182518 81 299 4.0 7.0 0.00 0.00 0.00 73 1016.0
20210922182017 81 0 0.0 3.0 0.00 0.00 0.00 78 1016.0
20210922181515 80 344 0.0 8.0 0.00 0.00 0.00 78 1015.9
20210922181015 82 337 1.0 4.0 0.00 0.00 0.00 75 1016.0
20210922180509 83 322 3.0 5.0 0.00 0.00 0.00 74 1015.9
20210922180007 86 225 0.0 5.0 0.00 0.00 0.00 71 1016.0